Temperature
13 13 13 12 12 13 13 13 13 13 13 13 13 12 11 11 10 10 10 10 10 10 9 9 9 9 9 9 9 10 10 10 10 10 10 10 10 10 10 11 11 11 11
13 13 13 12 12 12 12 13 13 13 13 13 12 11 11 10 9 9 9 9 9 9 9 9 9 9 9 9 9 9 10 10 10 10 10 10 10 10 10 10 10 10 11
13 13 13 12 12 12 12 13 13 13 13 12 12 11 10 10 9 8 8 8 8 8 9 9 9 9 9 9 9 9 9 9 10 10 10 10 10 10 10 10 10 10 10
13 13 13 12 12 12 12 12 12 12 12 12 12 11 10 9 9 8 7 7 7 8 8 8 8 8 8 9 9 9 9 9 9 9 9 9 10 10 9 9 9 9 10
13 13 12 12 12 12 12 12 12 12 12 12 11 11 10 9 8 8 7 7 7 7 7 7 8 8 8 8 8 8 8 8 8 7 7 7 8 8 8 7 7 6 7
13 13 12 12 12 12 12 12 12 11 11 11 11 10 9 8 8 7 7 7 7 7 7 7 7 7 7 7 7 7 7 6 6 6 5 5 5 6 6 6 5 5 4
13 12 12 12 12 12 11 11 11 11 11 11 10 9 8 8 8 7 7 7 7 6 6 6 7 7 7 6 6 6 6 5 5 5 4 4 4 4 4 3 3 3 3
13 12 12 12 12 12 11 11 11 10 10 10 10 9 8 7 7 7 7 7 6 6 6 6 6 6 6 6 6 5 5 5 5 4 3 3 3 3 3 2 2 2 3
12 12 11 11 11 11 11 11 10 10 9 9 9 8 8 7 7 7 6 6 5 5 5 5 5 5 4 4 5 4 4 4 4 2 2 1 1 2 1 1 1 2 2
12 12 11 11 11 11 11 10 10 9 9 8 8 7 6 6 5 5 5 5 4 4 4 4 4 4 4 3 3 3 3 2 2 1 0 -0 -0 -0 -0 -0 0 0 1
11 11 11 11 11 11 10 10 9 8 8 7 7 6 6 5 4 3 3 4 3 3 3 3 3 2 2 1 1 1 0 -0 -1 -1 -1 -2 -2 -1 -1 -1 -1 -1 -1
11 11 10 10 10 10 10 9 9 8 7 7 6 5 5 4 3 2 2 2 2 2 2 2 1 1 0 -0 -1 -1 -2 -3 -3 -3 -3 -3 -3 -2 -2 -2 -2 -2 -2
11 10 10 10 10 10 9 9 8 7 6 6 5 4 4 3 2 2 1 1 1 1 1 1 0 -0 -0 -1 -1 -2 -3 -4 -4 -4 -4 -4 -4 -4 -4 -4 -4 -4 -3
11 10 9 9 9 9 9 8 7 7 6 5 4 3 3 2 2 1 0 -0 -1 -1 -1 -1 -1 -1 -2 -2 -2 -3 -4 -4 -5 -5 -5 -4 -5 -5 -5 -5 -5 -4 -4
10 9 9 9 9 9 8 7 7 6 5 4 3 2 2 1 1 1 -0 -1 -2 -4 -3 -3 -3 -3 -3 -4 -4 -4 -5 -5 -5 -5 -5 -5 -5 -6 -5 -5 -5 -5 -5
10 9 9 9 8 8 7 6 6 5 4 3 2 2 1 1 1 -0 -1 -2 -3 -4 -5 -4 -5 -5 -5 -5 -6 -6 -6 -6 -6 -6 -6 -6 -6 -6 -6 -6 -6 -6 -5
9 9 9 8 8 7 6 6 5 4 3 2 1 1 0 0 -0 -1 -1 -2 -4 -5 -5 -5 -6 -6 -6 -6 -7 -7 -6 -6 -6 -7 -6 -6 -6 -6 -6 -6 -6 -6 -6
8 8 8 8 7 6 5 4 4 3 2 1 1 0 -0 -1 -1 -2 -3 -4 -5 -6 -6 -6 -7 -7 -7 -7 -7 -7 -7 -7 -7 -7 -7 -7 -7 -7 -7 -6 -6 -6 -6
8 8 7 7 6 5 4 4 3 2 1 1 0 -1 -1 -2 -2 -3 -5 -5 -6 -7 -7 -7 -8 -8 -7 -7 -7 -7 -7 -7 -8 -8 -7 -7 -7 -7 -7 -7 -7 -7 -7
8 7 7 6 5 4 3 3 2 1 1 0 -0 -1 -2 -3 -4 -5 -6 -6 -7 -8 -8 -8 -8 -8 -8 -8 -8 -8 -8 -8 -8 -8 -8 -7 -7 -7 -7 -7 -7 -7 -7
7 7 6 5 4 3 3 2 1 1 0 -0 -1 -2 -3 -4 -5 -6 -7 -7 -7 -8 -8 -8 -8 -8 -8 -8 -8 -8 -9 -9 -8 -8 -8 -7 -7 -7 -6 -7 -7 -7 -7
6 5 5 4 3 3 2 1 1 0 -0 -1 -1 -2 -4 -5 -6 -7 -7 -7 -8 -8 -8 -8 -8 -8 -9 -9 -9 -9 -9 -9 -9 -8 -8 -8 -7 -7 -7 -7 -7 -7 -7
5 4 3 3 2 2 1 0 -0 -1 -1 -2 -3 -4 -5 -6 -7 -7 -8 -8 -8 -8 -8 -8 -9 -9 -9 -9 -9 -9 -9 -9 -9 -8 -9 -8 -7 -8 -7 -8 -7 -7 -7
4 3 3 2 1 1 0 -0 -1 -1 -2 -3 -5 -6 -7 -7 -7 -8 -8 -8 -8 -8 -9 -9 -9 -9 -9 -9 -9 -9 -9 -9 -9 -8 -9 -9 -8 -8 -8 -7 -7 -6 -6
3 2 2 1 0 -0 -1 -1 -2 -2 -3 -5 -6 -7 -7 -8 -8 -8 -8 -8 -8 -9 -9 -9 -9 -9 -9 -9 -9 -9 -9 -9 -10 -9 -8 -9 -9 -9 -8 -7 -6 -6 -7
2 1 1 0 -1 -2 -3 -3 -4 -4 -5 -6 -7 -7 -8 -8 -8 -8 -8 -9 -9 -9 -9 -9 -8 -8 -8 -8 -8 -9 -10 -10 -10 -10 -8 -9 -10 -10 -10 -8 -7 -6 -6
Wind_Speed
4 4 5 6 8 8 6 5 6 6 5 6 7 6 5 6 6 11 12 14 13 13 13 13 13 14 14 13 13 13 14 15 15 15 15 15 15 14 13 12 12 11 10
5 4 4 5 7 8 6 6 6 4 4 4 4 4 4 5 5 9 13 12 13 12 12 12 13 13 13 13 13 12 12 13 14 14 15 15 16 15 13 12 12 12 12
10 7 5 4 5 8 9 8 6 5 3 4 6 4 3 3 3 5 10 11 11 10 10 11 12 13 13 13 13 13 13 13 14 15 15 16 16 16 15 14 13 13 14
14 9 5 5 8 10 7 4 5 4 5 5 5 4 3 1 3 5 7 10 9 7 6 8 11 11 12 13 13 14 14 14 14 15 16 17 17 17 17 16 15 15 15
16 11 5 6 10 6 4 5 5 4 4 5 5 3 2 1 3 3 4 7 8 6 6 7 10 10 12 13 13 14 14 15 15 16 17 17 18 19 18 18 18 17 17
16 12 7 8 8 5 4 4 4 4 4 4 4 2 0 2 2 2 2 5 6 5 6 8 10 11 13 14 14 14 14 15 15 16 17 18 19 19 19 19 19 18 19
15 11 6 6 6 6 6 6 4 5 4 4 4 4 2 1 1 3 3 3 2 4 6 6 7 9 11 13 14 14 15 15 17 18 19 20 21 21 21 21 20 20 20
15 13 8 8 8 7 7 6 4 3 3 4 4 3 4 3 3 1 2 2 1 3 3 4 6 7 10 11 11 13 14 16 17 19 21 22 23 23 23 23 23 22 22
13 13 11 8 8 7 6 6 5 4 2 3 4 3 3 2 4 4 2 1 2 2 2 4 5 5 9 11 9 10 14 15 17 21 24 24 24 25 25 24 24 24 24
12 14 13 10 8 7 7 6 6 4 3 2 2 2 2 3 1 4 5 4 5 5 5 4 5 7 9 10 9 11 15 16 20 24 26 26 26 26 25 25 25 25 26
9 13 13 10 8 7 8 7 6 4 3 3 2 2 2 1 2 3 5 5 5 5 6 5 6 9 9 9 8 11 16 18 23 26 27 27 27 27 26 26 26 26 27
8 10 12 9 6 7 8 7 6 5 3 3 1 1 1 0 1 1 4 5 6 5 6 7 7 7 8 10 9 12 16 20 24 27 28 28 27 27 27 28 28 28 29
9 10 11 8 7 6 7 6 5 5 3 2 0 1 1 1 1 2 4 5 6 5 5 5 3 6 8 6 8 15 19 23 26 28 29 29 29 29 30 30 30 29 29
9 10 11 9 7 8 7 5 5 4 3 2 1 1 1 2 2 2 3 4 6 4 3 6 6 6 8 12 17 22 18 25 28 29 30 30 31 31 31 31 30 30 30
12 12 12 10 8 7 6 6 4 5 3 2 1 1 1 1 2 2 3 3 4 6 6 5 4 6 15 16 19 19 18 24 29 30 30 31 32 33 32 32 32 31 31
13 13 11 10 9 8 6 5 3 4 2 2 2 1 1 1 3 3 3 4 4 6 8 4 6 8 10 16 23 22 21 28 28 30 31 32 33 33 33 33 33 32 32
14 13 11 10 9 8 6 5 3 4 2 2 1 1 1 1 2 3 4 4 5 5 11 9 6 6 8 10 14 18 20 19 21 28 31 32 32 32 33 33 33 33 33
12 11 10 9 8 7 5 3 1 2 2 2 2 2 2 2 3 4 4 5 5 6 9 13 7 7 10 11 11 11 14 19 19 26 28 30 31 32 33 34 34 33 33
12 10 9 9 8 7 5 3 3 3 3 2 2 2 3 3 4 4 4 5 5 7 7 10 11 8 8 10 11 12 13 10 17 22 26 28 30 33 34 33 33 33 32
12 10 10 9 8 6 4 4 4 4 4 4 3 3 4 5 5 4 4 6 6 6 7 9 11 11 9 9 9 10 11 8 10 15 21 26 28 31 32 33 33 33 32
12 11 10 8 6 4 5 6 5 5 6 6 6 5 4 6 8 8 7 6 6 6 7 9 11 11 10 8 9 8 12 11 11 11 11 13 13 14 16 26 29 30 31
11 10 8 7 5 5 6 5 4 4 5 7 7 5 4 7 10 13 14 15 14 11 9 10 11 12 13 11 9 11 13 15 14 5 8 15 12 14 13 10 25 31 31
10 9 7 6 6 7 5 3 6 5 6 7 7 5 5 6 9 4 10 15 14 20 21 14 13 13 12 10 10 13 14 16 17 12 11 18 13 14 12 17 28 31 32
8 7 6 5 4 5 5 3 7 6 7 8 7 5 5 5 6 10 7 6 8 11 16 13 10 11 12 11 13 16 16 14 14 11 9 16 16 15 15 11 26 30 30
7 6 5 4 3 3 4 4 7 4 6 7 7 6 7 6 13 16 9 8 10 10 18 22 23 23 27 28 22 13 10 12 16 15 7 8 13 15 15 13 17 23 24
6 5 4 3 2 1 1 4 7 3 5 6 6 7 12 13 16 17 10 9 11 10 11 12 15 19 16 17 22 12 9 12 15 12 5 4 9 11 10 6 7 9 15
Wind_Direction
146 111 101 100 97 100 88 64 50 31 24 24 6 10 9 3 27 99 94 84 75 67 58 51 44 37 31 26 21 18 13 10 7 5 3 1 358 354 351 352 354 354 351
128 106 91 87 88 87 72 62 64 34 34 13 342 354 12 14 40 96 118 98 88 76 61 47 37 28 21 15 9 5 2 359 354 350 348 346 344 339 332 327 328 329 328
125 115 112 109 110 97 73 48 43 38 33 5 356 8 29 21 24 88 113 121 104 87 66 44 28 18 12 8 3 358 355 352 347 342 338 335 333 330 323 316 312 313 312
128 118 114 114 105 92 85 67 34 37 32 15 349 345 342 57 41 77 92 92 87 73 59 38 19 9 4 0 356 352 349 346 341 336 332 329 327 324 318 312 307 305 304
127 122 116 113 102 93 87 87 60 45 27 358 323 304 330 64 110 76 87 104 95 66 38 29 13 360 353 347 344 343 343 341 338 334 330 327 323 320 316 311 305 301 299
130 125 123 116 113 107 102 103 108 69 32 345 322 319 237 95 128 135 70 93 115 102 56 37 23 5 350 339 338 338 338 336 337 335 331 327 323 318 313 308 304 300 296
134 132 122 118 116 107 91 76 81 77 28 357 8 346 314 213 153 127 94 72 78 92 59 36 23 0 346 337 335 332 333 335 335 334 331 329 325 320 314 308 303 299 296
135 134 125 123 117 110 98 85 70 86 52 37 42 16 359 352 348 42 104 105 32 77 37 13 359 342 343 330 328 329 331 330 330 330 328 324 321 316 310 306 302 298 295
133 132 128 125 122 115 109 98 81 79 81 57 58 75 73 336 324 322 318 38 17 16 344 324 311 325 334 321 321 326 322 324 326 326 323 319 316 312 307 303 301 298 296
131 129 128 125 120 119 120 114 99 91 81 79 64 52 103 125 53 319 318 342 6 345 326 316 311 304 305 303 307 318 318 319 322 323 320 316 312 309 306 304 302 301 299
127 126 127 125 125 121 117 110 102 87 80 82 68 36 30 43 194 227 286 310 327 319 320 311 299 285 278 283 289 306 310 314 316 317 314 310 308 307 306 306 306 304 302
129 125 126 123 120 118 119 119 114 104 94 91 65 65 100 74 338 310 288 303 299 294 302 290 281 268 266 272 281 302 307 309 310 310 308 306 306 307 307 306 304 302 299
143 137 134 131 125 120 122 123 124 129 124 109 53 28 30 336 298 290 287 292 295 298 290 290 307 322 312 324 326 316 309 308 308 306 305 305 306 306 305 302 299 298 297
144 140 135 130 127 126 129 128 128 132 122 157 222 185 255 276 290 287 280 298 304 292 293 303 315 312 336 334 320 314 312 308 306 304 303 305 305 305 302 299 297 296 294
144 139 133 131 129 129 132 138 139 144 152 199 216 27 329 295 295 280 276 273 279 295 297 281 298 334 329 317 315 315 308 308 306 305 305 304 303 302 300 298 297 296 294
142 136 130 127 125 124 125 124 122 122 135 251 180 182 289 322 331 320 304 283 266 276 287 283 304 300 309 315 312 311 307 306 305 303 301 301 300 300 300 300 298 297 294
137 134 130 128 129 133 133 138 163 158 190 273 293 243 278 313 296 289 289 284 278 276 287 292 286 295 306 304 302 298 300 297 295 299 300 300 301 302 301 300 298 297 294
129 127 126 125 123 117 112 117 133 139 218 255 286 308 295 298 299 290 281 277 280 278 287 300 304 305 301 297 296 297 304 301 299 300 302 302 303 302 301 300 298 296 295
122 117 113 110 106 101 92 67 42 10 338 304 279 269 276 288 284 280 290 298 296 302 304 304 303 297 294 295 298 296 294 294 299 303 304 302 301 300 299 300 300 300 299
116 109 103 100 102 106 96 58 24 354 332 318 297 265 253 252 255 261 285 281 285 290 290 292 295 296 293 290 292 298 300 290 297 303 298 296 297 299 299 300 299 298 296
109 105 105 105 108 108 82 55 19 353 341 326 309 287 272 285 289 285 282 273 288 284 286 290 294 298 299 301 298 297 302 303 294 287 287 290 294 292 293 294 295 294 292
104 104 108 114 114 103 86 48 360 339 328 313 301 299 312 304 295 301 305 305 303 302 301 295 298 298 297 293 297 301 302 301 299 278 293 297 292 290 289 286 292 295 297
109 108 107 103 102 117 104 41 343 337 306 289 282 278 285 290 308 310 300 302 304 304 303 299 295 292 293 293 293 294 293 293 294 296 298 295 292 289 289 292 297 298 298
107 106 103 97 99 138 121 36 345 341 305 292 290 284 282 291 302 302 289 292 287 292 293 296 288 288 294 291 287 292 293 294 290 286 276 287 294 294 295 288 294 293 293
100 99 94 87 78 117 124 17 348 328 306 307 314 324 321 298 303 308 310 299 293 291 303 302 302 302 303 304 305 303 298 298 297 296 281 276 290 299 296 289 285 288 292
96 100 102 104 110 121 72 352 345 329 316 321 323 319 315 310 309 313 311 301 302 300 298 301 304 303 300 299 304 300 296 298 297 297 283 274 294 308 302 264 264 286 290
Height
1521 1522 1523 1525 1525 1526 1526 1527 1527 1526 1525 1523 1521 1520 1519 1518 1518 1516 1516 1516 1515 1515 1515 1515 1515 1515 1515 1514 1513 1513 1513 1513 1512 1512 1512 1511 1510 1510 1510 1510 1510 1510 1510
1520 1521 1522 1523 1524 1525 1525 1525 1524 1524 1522 1521 1519 1517 1517 1516 1516 1515 1514 1514 1514 1513 1514 1514 1514 1513 1513 1512 1511 1510 1510 1509 1509 1509 1508 1507 1507 1506 1506 1505 1505 1505 1505
1518 1519 1521 1522 1523 1523 1523 1523 1522 1521 1520 1518 1516 1515 1514 1514 1514 1514 1513 1512 1512 1512 1513 1512 1512 1511 1510 1510 1509 1508 1506 1505 1504 1504 1503 1503 1502 1501 1500 1500 1500 1499 1499
1515 1517 1518 1520 1521 1521 1522 1522 1521 1519 1517 1515 1514 1513 1512 1512 1512 1512 1512 1512 1511 1511 1511 1510 1510 1509 1508 1507 1506 1505 1503 1501 1500 1499 1498 1497 1496 1495 1494 1494 1493 1493 1492
1512 1514 1516 1517 1519 1519 1520 1520 1519 1517 1515 1513 1512 1511 1511 1510 1510 1511 1512 1511 1510 1510 1509 1508 1508 1507 1505 1504 1503 1501 1499 1497 1496 1494 1493 1492 1491 1489 1488 1488 1487 1486 1486
1508 1511 1513 1515 1517 1518 1518 1517 1517 1515 1514 1512 1511 1510 1510 1510 1509 1510 1510 1510 1509 1508 1507 1506 1505 1504 1502 1500 1498 1496 1494 1493 1491 1489 1488 1486 1485 1484 1482 1482 1481 1480 1480
1505 1508 1510 1512 1514 1515 1516 1515 1515 1514 1513 1512 1511 1510 1510 1510 1509 1509 1508 1508 1508 1506 1505 1504 1502 1500 1498 1496 1494 1492 1490 1488 1486 1484 1483 1481 1479 1478 1477 1476 1475 1474 1473
1501 1504 1507 1509 1511 1512 1513 1514 1513 1513 1512 1511 1510 1509 1509 1511 1509 1509 1508 1507 1506 1504 1503 1501 1499 1496 1494 1491 1489 1487 1485 1483 1481 1479 1477 1475 1473 1472 1470 1469 1468 1467 1466
1497 1500 1503 1506 1507 1509 1511 1511 1512 1511 1510 1510 1509 1509 1508 1508 1508 1507 1506 1505 1503 1502 1500 1498 1495 1492 1490 1487 1484 1482 1480 1477 1475 1473 1471 1469 1466 1464 1463 1462 1461 1460 1458
1494 1497 1500 1502 1504 1506 1508 1509 1510 1509 1509 1508 1507 1506 1506 1506 1506 1504 1503 1502 1501 1499 1496 1493 1490 1488 1485 1483 1480 1478 1475 1472 1469 1466 1464 1461 1459 1457 1456 1454 1453 1451 1450
1490 1493 1496 1499 1502 1504 1505 1507 1507 1507 1507 1506 1505 1504 1503 1502 1502 1501 1498 1496 1495 1494 1491 1489 1486 1482 1480 1478 1475 1472 1470 1467 1463 1460 1457 1455 1452 1450 1448 1446 1444 1442 1440
1485 1489 1493 1496 1499 1501 1503 1504 1505 1505 1504 1504 1503 1502 1500 1500 1499 1498 1495 1491 1488 1486 1485 1482 1480 1477 1475 1472 1470 1467 1464 1461 1457 1454 1451 1448 1446 1443 1440 1438 1435 1433 1431
1480 1485 1489 1493 1496 1498 1500 1501 1501 1501 1501 1500 1500 1499 1498 1497 1496 1494 1492 1488 1483 1479 1477 1476 1476 1475 1472 1469 1465 1462 1458 1454 1451 1447 1444 1441 1438 1435 1432 1429 1426 1424 1422
1476 1481 1486 1490 1493 1495 1497 1498 1498 1498 1497 1497 1496 1495 1494 1493 1492 1491 1489 1485 1479 1473 1472 1471 1470 1469 1467 1463 1460 1456 1451 1447 1443 1440 1437 1433 1430 1426 1423 1420 1417 1414 1412
1473 1478 1483 1487 1490 1492 1494 1494 1494 1494 1494 1493 1492 1491 1490 1489 1488 1487 1485 1482 1479 1471 1464 1463 1464 1463 1461 1457 1453 1448 1444 1440 1436 1433 1429 1425 1421 1416 1413 1410 1407 1404 1402
1470 1475 1480 1484 1487 1489 1490 1491 1491 1491 1490 1489 1488 1487 1486 1485 1483 1482 1480 1478 1475 1470 1463 1458 1458 1456 1453 1450 1446 1441 1437 1433 1429 1425 1421 1417 1412 1408 1404 1400 1397 1394 1391
1468 1473 1478 1482 1484 1486 1487 1488 1488 1487 1486 1485 1484 1482 1481 1479 1478 1476 1474 1471 1469 1466 1459 1452 1452 1450 1446 1442 1438 1434 1430 1425 1421 1417 1413 1409 1405 1400 1396 1391 1387 1384 1381
1467 1472 1476 1479 1481 1483 1484 1485 1484 1483 1482 1481 1479 1478 1476 1474 1472 1470 1468 1465 1463 1461 1456 1448 1445 1443 1439 1436 1431 1427 1423 1419 1414 1410 1406 1401 1396 1391 1387 1382 1378 1375 1371
1466 1471 1474 1477 1479 1480 1481 1481 1481 1479 1478 1476 1474 1472 1471 1469 1466 1464 1462 1460 1457 1454 1451 1445 1439 1436 1432 1429 1424 1419 1415 1411 1407 1402 1397 1392 1387 1382 1377 1373 1369 1365 1361
1465 1469 1472 1474 1476 1477 1478 1477 1476 1475 1473 1471 1470 1468 1465 1463 1461 1458 1456 1454 1451 1448 1445 1440 1434 1429 1426 1422 1419 1413 1406 1402 1397 1393 1388 1383 1378 1373 1368 1364 1359 1354 1351
1464 1467 1470 1472 1473 1474 1474 1473 1472 1470 1468 1467 1465 1463 1460 1458 1456 1454 1452 1449 1447 1443 1439 1434 1429 1424 1420 1416 1412 1407 1400 1394 1388 1384 1378 1373 1368 1362 1358 1353 1349 1345 1341
1462 1465 1467 1469 1470 1470 1470 1468 1467 1466 1464 1462 1459 1457 1455 1453 1450 1449 1447 1445 1442 1439 1434 1430 1424 1420 1414 1410 1406 1401 1395 1387 1379 1376 1371 1363 1360 1353 1349 1344 1340 1337 1333
1461 1463 1465 1466 1466 1466 1466 1464 1463 1461 1459 1456 1454 1451 1449 1447 1446 1443 1440 1438 1436 1433 1431 1426 1419 1414 1409 1405 1400 1394 1388 1382 1374 1369 1366 1355 1350 1345 1341 1336 1333 1329 1324
1459 1461 1462 1463 1462 1462 1462 1460 1458 1456 1453 1451 1449 1447 1445 1442 1440 1438 1435 1432 1429 1426 1423 1419 1414 1409 1404 1399 1395 1389 1383 1376 1368 1363 1360 1351 1342 1336 1331 1326 1323 1319 1315
1457 1459 1459 1460 1459 1459 1457 1456 1453 1450 1448 1446 1444 1442 1440 1438 1436 1433 1430 1426 1422 1418 1415 1411 1407 1402 1397 1393 1389 1383 1377 1370 1361 1354 1353 1347 1337 1328 1319 1314 1312 1309 1306
1455 1456 1457 1457 1457 1456 1454 1452 1448 1445 1443 1441 1439 1437 1435 1433 1431 1429 1425 1421 1415 1411 1407 1403 1399 1394 1390 1385 1381 1377 1372 1366 1358 1348 1343 1339 1331 1325 1310 1302 1301 1298 1295